Regional Weather Roundup
Issued by NWS Raleigh/Durham, NC

Home | Current Version | Previous Version | Text Only | Print | Product List | Glossary On
Versions: 1 2 3 4 5 6 7 8 9 10 11 12 13 14 15 16 17 18 19 20 21 22 23 24 25 26 27 28 29 30 31 32 33 34 35 36 37 38 39 40 41 42 43 44 45 46 47 48 49 50
000
ASUS42 KRAH 020410
RWRRAH
NORTH CAROLINA WEATHER ROUNDUP
NATIONAL WEATHER SERVICE RALEIGH NC
1200 AM EDT SAT AUG 02 2014

NOTE: "FAIR" INDICATES FEW OR NO CLOUDS BELOW 12,000 FEET WITH NO
SIGNIFICANT WEATHER AND/OR OBSTRUCTIONS TO VISIBILITY.

NCZ001-053-055-056-065-067-020500-
WESTERN NORTH CAROLINA

CITY           SKY/WX    TMP DP  RH WIND       PRES   REMARKS
ASHEVILLE      CLOUDY    64  60  87 CALM      30.17S
JEFFERSON      DRIZZLE   59  57  95 CALM      30.20F
MORGANTON      CLOUDY    64  64 100 N3        30.19S FOG
HICKORY        CLOUDY    64  63  96 NE3       30.13F
RUTHERFORDTON  CLOUDY    65  63  91 N6        30.14S
MOUNT AIRY     CLOUDY    66  63  91 NE3       30.15S
BOONE          DRIZZLE   59  59 100 CALM      30.21S
$$

NCZ021-022-025-041-071-084-088-020500-
CENTRAL NORTH CAROLINA

CITY           SKY/WX    TMP DP  RH WIND       PRES   REMARKS
CHARLOTTE      CLOUDY    67  64  90 NE9       30.11F
GREENSBORO     CLOUDY    63  63 100 NE8       30.14R FOG
WINSTON-SALEM  CLOUDY    64  62  93 NE8       30.15S
RALEIGH-DURHAM DRIZZLE   65  62  90 NE5       30.12R
FORT BRAGG     DRIZZLE   68  67  96 N6        30.09R
FAYETTEVILLE   CLOUDY    70  67  90 N8        30.08R
BURLINGTON     CLOUDY    65  62  90 N5        30.13S
LAURINBURG     CLOUDY    68  67  96 NE7       30.10R
$$

NCZ011-015-027-028-043-044-047-080-103-020500-
NORTHEASTERN NORTH CAROLINA

CITY           SKY/WX    TMP DP  RH WIND       PRES   REMARKS
ROCKY MT-WILSO CLOUDY    67  65  93 N7        30.09S
GREENVILLE     NOT AVBL
WASHINGTON     MOCLDY    73  72  95 S3        30.07F
ELIZABETH CITY CLOUDY    75  72  90 SE8       30.07F
MANTEO         NOT AVBL
CAPE HATTERAS  MOCLDY    76  74  93 SE13      30.09S
$$

NCZ078-087-090-091-093-098-101-020500-
SOUTHEASTERN NORTH CAROLINA

CITY           SKY/WX    TMP DP  RH WIND       PRES   REMARKS
LUMBERTON      CLOUDY    71  69  93 N7        30.07R
GOLDSBORO      CLOUDY    69  69  99 N5        30.06S
KINSTON        CLOUDY    75  74  96 CALM      30.08S
KENANSVILLE    CLOUDY    74  73  95 CALM      30.08S
NEW BERN       MOCLDY    76  73  91 CALM      30.08S
CHERRY POINT   PTCLDY    73  72  96 SE6       30.08S
BEAUFORT       PTCLDY    75  73  93 CALM      30.07S
JACKSONVILLE   CLOUDY    75  73  93 CALM      30.07R
WILMINGTON     CLOUDY    75  73  93 CALM      30.06S
$$




USA.gov is the U.S. government's official web portal to all federal, state and local government web resources and services.